Wetterdaten: Mittwoch, 10.06.2015
Datum Zeit Temp. Auen Feucht Auen Luftdruck Regen Richtung Richtung Windben
10.06.2015 00:00 13,4 C 93 % 1021,7 hPa 0,0 mm O 101 8,0 km/h (2 Bft)
10.06.2015 00:05 13,3 C 93 % 1021,8 hPa 0,0 mm O-NO 67 8,0 km/h (2 Bft)
10.06.2015 00:10 13,2 C 93 % 1021,8 hPa 0,0 mm O 91 8,0 km/h (2 Bft)
10.06.2015 00:15 13,3 C 93 % 1021,7 hPa 0,0 mm O-SO 103 4,8 km/h (1 Bft)
10.06.2015 00:20 13,3 C 93 % 1021,8 hPa 0,0 mm O-NO 69 8,0 km/h (2 Bft)
10.06.2015 00:25 13,3 C 93 % 1021,7 hPa 0,0 mm O-NO 69 3,2 km/h (1 Bft)
10.06.2015 00:30 13,3 C 93 % 1021,7 hPa 0,0 mm O-NO 70 4,8 km/h (1 Bft)
10.06.2015 00:35 13,4 C 93 % 1021,7 hPa 0,0 mm O 94 4,8 km/h (1 Bft)
10.06.2015 00:40 13,4 C 93 % 1021,8 hPa 0,0 mm O-SO 105 4,8 km/h (1 Bft)
10.06.2015 00:45 13,4 C 93 % 1021,8 hPa 0,0 mm SO 130 3,2 km/h (1 Bft)
10.06.2015 00:50 13,4 C 93 % 1021,8 hPa 0,0 mm O-SO 123 4,8 km/h (1 Bft)
10.06.2015 00:55 13,4 C 93 % 1021,8 hPa 0,0 mm O-SO 107 3,2 km/h (1 Bft)
10.06.2015 01:00 13,3 C 93 % 1021,7 hPa 0,0 mm O 100 6,4 km/h (2 Bft)
10.06.2015 01:05 13,4 C 92 % 1021,7 hPa 0,0 mm S-SO 153 6,4 km/h (2 Bft)
10.06.2015 01:10 13,4 C 92 % 1021,7 hPa 0,0 mm O 96 4,8 km/h (1 Bft)
10.06.2015 01:15 13,4 C 92 % 1021,7 hPa 0,0 mm O-SO 107 4,8 km/h (1 Bft)
10.06.2015 01:20 13,4 C 92 % 1021,7 hPa 0,0 mm S-SO 148 8,0 km/h (2 Bft)
10.06.2015 01:25 13,3 C 92 % 1021,7 hPa 0,0 mm SO 124 4,8 km/h (1 Bft)
10.06.2015 01:30 13,4 C 92 % 1021,7 hPa 0,0 mm O-SO 113 6,4 km/h (2 Bft)
10.06.2015 01:35 13,3 C 92 % 1021,6 hPa 0,0 mm SO 137 6,4 km/h (2 Bft)
10.06.2015 01:40 13,4 C 92 % 1021,6 hPa 0,0 mm O 96 8,0 km/h (2 Bft)
10.06.2015 01:45 13,4 C 92 % 1021,6 hPa 0,0 mm O-SO 109 8,0 km/h (2 Bft)
10.06.2015 01:50 13,4 C 92 % 1021,5 hPa 0,0 mm NO 54 8,0 km/h (2 Bft)
10.06.2015 01:55 13,3 C 92 % 1021,4 hPa 0,0 mm O-SO 108 8,0 km/h (2 Bft)
10.06.2015 02:00 13,3 C 91 % 1021,3 hPa 0,0 mm N-NO 22 11,3 km/h (2 Bft)
10.06.2015 02:05 13,3 C 91 % 1021,3 hPa 0,0 mm O-SO 103 9,7 km/h (2 Bft)
10.06.2015 02:10 13,3 C 91 % 1021,3 hPa 0,0 mm S-SO 150 4,8 km/h (1 Bft)
10.06.2015 02:15 13,2 C 91 % 1021,4 hPa 0,0 mm SO 146 4,8 km/h (1 Bft)
10.06.2015 02:20 13,2 C 92 % 1021,2 hPa 0,0 mm SO 134 4,8 km/h (1 Bft)
10.06.2015 02:25 13,2 C 92 % 1021,1 hPa 0,0 mm SO 128 8,0 km/h (2 Bft)
10.06.2015 02:30 13,2 C 92 % 1021,1 hPa 0,0 mm O-SO 122 6,4 km/h (2 Bft)
10.06.2015 02:35 13,2 C 92 % 1021,1 hPa 0,0 mm O-SO 122 4,8 km/h (1 Bft)
10.06.2015 02:40 13,2 C 92 % 1021,0 hPa 0,0 mm O-NO 69 6,4 km/h (2 Bft)
10.06.2015 02:45 13,2 C 91 % 1021,0 hPa 0,0 mm O 92 6,4 km/h (2 Bft)
10.06.2015 02:50 13,2 C 91 % 1021,0 hPa 0,0 mm O 92 3,2 km/h (1 Bft)
10.06.2015 02:55 13,2 C 91 % 1021,0 hPa 0,0 mm O 99 8,0 km/h (2 Bft)
10.06.2015 03:00 13,2 C 91 % 1020,9 hPa 0,0 mm O 80 4,8 km/h (1 Bft)
10.06.2015 03:05 13,2 C 92 % 1021,0 hPa 0,0 mm O 80 3,2 km/h (1 Bft)
10.06.2015 03:10 13,3 C 92 % 1020,9 hPa 0,0 mm O 80 3,2 km/h (1 Bft)
10.06.2015 03:15 13,2 C 92 % 1020,9 hPa 0,0 mm O 80 3,2 km/h (1 Bft)
10.06.2015 03:20 13,2 C 92 % 1020,8 hPa 0,0 mm O 79 3,2 km/h (1 Bft)
10.06.2015 03:25 13,2 C 92 % 1020,9 hPa 0,0 mm O 96 4,8 km/h (1 Bft)
10.06.2015 03:30 13,2 C 92 % 1020,9 hPa 0,0 mm SO 132 3,2 km/h (1 Bft)
10.06.2015 03:35 13,1 C 92 % 1020,9 hPa 0,0 mm SO 140 4,8 km/h (1 Bft)
10.06.2015 03:40 13,2 C 92 % 1020,8 hPa 0,0 mm O-SO 119 6,4 km/h (2 Bft)
10.06.2015 03:45 13,2 C 91 % 1020,9 hPa 0,0 mm SO 134 6,4 km/h (2 Bft)
10.06.2015 03:50 13,2 C 92 % 1020,9 hPa 0,0 mm SO 134 4,8 km/h (1 Bft)
10.06.2015 03:55 13,1 C 92 % 1021,0 hPa 0,0 mm SO 133 3,2 km/h (1 Bft)
10.06.2015 04:00 13,1 C 92 % 1020,9 hPa 0,0 mm SO 138 8,0 km/h (2 Bft)
10.06.2015 04:05 13,1 C 92 % 1020,8 hPa 0,0 mm SO 128 4,8 km/h (1 Bft)
10.06.2015 04:10 13,0 C 91 % 1020,8 hPa 0,0 mm SO 124 4,8 km/h (1 Bft)
10.06.2015 04:15 13,0 C 92 % 1020,8 hPa 0,0 mm SO 126 8,0 km/h (2 Bft)
10.06.2015 04:20 13,0 C 92 % 1020,8 hPa 0,0 mm SO 126 4,8 km/h (1 Bft)
10.06.2015 04:25 13,0 C 92 % 1020,8 hPa 0,0 mm SO 144 4,8 km/h (1 Bft)
10.06.2015 04:30 13,0 C 92 % 1020,8 hPa 0,0 mm S-SO 154 6,4 km/h (2 Bft)
10.06.2015 04:35 13,0 C 92 % 1020,9 hPa 0,0 mm SO 146 6,4 km/h (2 Bft)
10.06.2015 04:40 13,0 C 92 % 1020,9 hPa 0,0 mm O-NO 69 6,4 km/h (2 Bft)
10.06.2015 04:45 12,9 C 92 % 1020,9 hPa 0,0 mm O-SO 114 6,4 km/h (2 Bft)
10.06.2015 04:50 13,0 C 92 % 1021,0 hPa 0,0 mm O-SO 114 3,2 km/h (1 Bft)
10.06.2015 04:55 13,0 C 92 % 1020,9 hPa 0,0 mm O 90 4,8 km/h (1 Bft)
10.06.2015 05:00 13,1 C 92 % 1020,8 hPa 0,0 mm O 90 3,2 km/h (1 Bft)
10.06.2015 05:05 13,0 C 92 % 1020,8 hPa 0,0 mm SO 126 6,4 km/h (2 Bft)
10.06.2015 05:10 13,0 C 92 % 1020,8 hPa 0,0 mm SO 136 4,8 km/h (1 Bft)
10.06.2015 05:15 12,9 C 92 % 1020,8 hPa 0,0 mm O-SO 115 6,4 km/h (2 Bft)
10.06.2015 05:20 12,9 C 92 % 1020,8 hPa 0,0 mm O 92 8,0 km/h (2 Bft)
10.06.2015 05:25 12,8 C 92 % 1021,0 hPa 0,0 mm O-SO 104 6,4 km/h (2 Bft)
10.06.2015 05:30 12,8 C 92 % 1021,2 hPa 0,0 mm SO 134 8,0 km/h (2 Bft)
10.06.2015 05:35 12,8 C 92 % 1021,2 hPa 0,0 mm SO 130 4,8 km/h (1 Bft)
10.06.2015 05:40 12,8 C 92 % 1021,2 hPa 0,0 mm O 90 4,8 km/h (1 Bft)
10.06.2015 05:45 12,9 C 92 % 1021,2 hPa 0,0 mm SO 136 6,4 km/h (2 Bft)
10.06.2015 05:50 12,9 C 92 % 1021,2 hPa 0,0 mm O-SO 105 8,0 km/h (2 Bft)
10.06.2015 05:55 12,9 C 92 % 1021,1 hPa 0,0 mm O 100 6,4 km/h (2 Bft)
10.06.2015 06:00 12,9 C 92 % 1021,2 hPa 0,0 mm SO 140 9,7 km/h (2 Bft)
10.06.2015 06:05 12,8 C 92 % 1021,3 hPa 0,0 mm SO 140 8,0 km/h (2 Bft)
10.06.2015 06:10 12,8 C 92 % 1021,3 hPa 0,0 mm S-SO 149 8,0 km/h (2 Bft)
10.06.2015 06:15 12,8 C 92 % 1021,3 hPa 0,0 mm O-SO 110 8,0 km/h (2 Bft)
10.06.2015 06:20 12,8 C 92 % 1021,3 hPa 0,0 mm SO 127 8,0 km/h (2 Bft)
10.06.2015 06:25 12,8 C 92 % 1021,4 hPa 0,0 mm O 97 11,3 km/h (2 Bft)
10.06.2015 06:30 12,8 C 92 % 1021,4 hPa 0,0 mm O 85 8,0 km/h (2 Bft)
10.06.2015 06:35 12,8 C 92 % 1021,4 hPa 0,0 mm SO 130 8,0 km/h (2 Bft)
10.06.2015 06:40 12,8 C 92 % 1021,4 hPa 0,0 mm N 5 8,0 km/h (2 Bft)
10.06.2015 06:45 12,8 C 91 % 1021,4 hPa 0,0 mm N-NO 17 11,3 km/h (2 Bft)
10.06.2015 06:50 12,8 C 91 % 1021,4 hPa 0,0 mm O 85 12,9 km/h (3 Bft)
10.06.2015 06:55 12,9 C 91 % 1021,3 hPa 0,0 mm O-SO 110 9,7 km/h (2 Bft)
10.06.2015 07:00 12,9 C 91 % 1021,4 hPa 0,0 mm O-SO 103 6,4 km/h (2 Bft)
10.06.2015 07:05 13,0 C 91 % 1021,5 hPa 0,0 mm N-NO 26 8,0 km/h (2 Bft)
10.06.2015 07:10 12,9 C 91 % 1021,5 hPa 0,0 mm O 87 11,3 km/h (2 Bft)
10.06.2015 07:15 12,9 C 91 % 1021,5 hPa 0,0 mm O 94 8,0 km/h (2 Bft)
10.06.2015 07:20 13,0 C 91 % 1021,5 hPa 0,0 mm NO 42 8,0 km/h (2 Bft)
10.06.2015 07:25 13,0 C 91 % 1021,6 hPa 0,0 mm N 11 8,0 km/h (2 Bft)
10.06.2015 07:30 13,1 C 91 % 1021,5 hPa 0,0 mm NO 36 6,4 km/h (2 Bft)
10.06.2015 07:35 13,1 C 91 % 1021,5 hPa 0,0 mm O 84 4,8 km/h (1 Bft)
10.06.2015 07:40 13,1 C 91 % 1021,5 hPa 0,0 mm N-NO 22 9,7 km/h (2 Bft)
10.06.2015 07:45 13,1 C 91 % 1021,5 hPa 0,0 mm NO 49 8,0 km/h (2 Bft)
10.06.2015 07:50 13,1 C 91 % 1021,5 hPa 0,0 mm N-NO 19 6,4 km/h (2 Bft)
10.06.2015 07:55 13,1 C 91 % 1021,7 hPa 0,0 mm NO 53 8,0 km/h (2 Bft)
10.06.2015 08:00 13,2 C 91 % 1021,7 hPa 0,0 mm O-NO 67 6,4 km/h (2 Bft)
10.06.2015 08:05 13,1 C 91 % 1021,7 hPa 0,0 mm N 355 8,0 km/h (2 Bft)
10.06.2015 08:10 13,2 C 91 % 1021,7 hPa 0,0 mm N-NO 30 6,4 km/h (2 Bft)
10.06.2015 08:15 13,2 C 91 % 1021,7 hPa 0,0 mm N 360 8,0 km/h (2 Bft)
10.06.2015 08:20 13,1 C 91 % 1021,8 hPa 0,0 mm O-NO 71 8,0 km/h (2 Bft)
10.06.2015 08:25 13,2 C 91 % 1021,7 hPa 0,0 mm NO 53 6,4 km/h (2 Bft)
10.06.2015 08:30 13,2 C 91 % 1021,7 hPa 0,0 mm O 89 8,0 km/h (2 Bft)
10.06.2015 08:35 13,3 C 91 % 1021,8 hPa 0,0 mm NO 49 8,0 km/h (2 Bft)
10.06.2015 08:40 13,3 C 91 % 1021,7 hPa 0,0 mm NO 35 9,7 km/h (2 Bft)
10.06.2015 08:45 13,3 C 91 % 1021,9 hPa 0,0 mm O 97 6,4 km/h (2 Bft)
10.06.2015 08:50 13,3 C 91 % 1021,8 hPa 0,0 mm O-NO 63 6,4 km/h (2 Bft)
10.06.2015 08:55 13,4 C 91 % 1021,9 hPa 0,0 mm N-NO 15 4,8 km/h (1 Bft)
10.06.2015 09:00 13,4 C 91 % 1021,9 hPa 0,0 mm O-NO 67 8,0 km/h (2 Bft)
10.06.2015 09:05 13,4 C 91 % 1021,9 hPa 0,0 mm N 5 8,0 km/h (2 Bft)
10.06.2015 09:10 13,4 C 91 % 1021,9 hPa 0,0 mm O-NO 70 8,0 km/h (2 Bft)
10.06.2015 09:15 13,4 C 91 % 1021,9 hPa 0,0 mm O 80 9,7 km/h (2 Bft)
10.06.2015 09:20 13,5 C 91 % 1021,8 hPa 0,0 mm O 96 8,0 km/h (2 Bft)
10.06.2015 09:25 13,5 C 91 % 1021,8 hPa 0,0 mm NO 53 9,7 km/h (2 Bft)
10.06.2015 09:30 13,5 C 91 % 1021,9 hPa 0,0 mm N-NO 19 8,0 km/h (2 Bft)
10.06.2015 09:35 13,6 C 91 % 1021,9 hPa 0,0 mm N-NO 33 9,7 km/h (2 Bft)
10.06.2015 09:40 13,6 C 91 % 1021,8 hPa 0,0 mm NO 52 8,0 km/h (2 Bft)
10.06.2015 09:45 13,8 C 91 % 1021,8 hPa 0,0 mm NO 35 6,4 km/h (2 Bft)
10.06.2015 09:50 13,9 C 90 % 1021,9 hPa 0,0 mm O-NO 61 6,4 km/h (2 Bft)
10.06.2015 09:55 13,9 C 90 % 1021,9 hPa 0,0 mm N-NO 32 8,0 km/h (2 Bft)
10.06.2015 10:00 13,9 C 90 % 1021,9 hPa 0,0 mm N 360 8,0 km/h (2 Bft)
10.06.2015 10:05 14,0 C 90 % 1021,9 hPa 0,0 mm O 85 6,4 km/h (2 Bft)
10.06.2015 10:10 14,0 C 90 % 1021,8 hPa 0,0 mm O-NO 66 9,7 km/h (2 Bft)
10.06.2015 10:15 14,0 C 90 % 1021,7 hPa 0,0 mm O-NO 67 8,0 km/h (2 Bft)
10.06.2015 10:20 14,0 C 90 % 1021,7 hPa 0,0 mm O-NO 71 9,7 km/h (2 Bft)
10.06.2015 10:25 14,1 C 90 % 1021,8 hPa 0,0 mm O-SO 113 8,0 km/h (2 Bft)
10.06.2015 10:30 14,2 C 90 % 1021,8 hPa 0,0 mm N-NO 24 8,0 km/h (2 Bft)
10.06.2015 10:35 14,2 C 90 % 1021,8 hPa 0,0 mm NO 52 8,0 km/h (2 Bft)
10.06.2015 10:40 14,3 C 90 % 1021,8 hPa 0,0 mm O-SO 103 6,4 km/h (2 Bft)
10.06.2015 10:45 14,5 C 90 % 1021,8 hPa 0,0 mm NO 56 8,0 km/h (2 Bft)
10.06.2015 10:50 14,7 C 90 % 1021,6 hPa 0,0 mm NO 38 9,7 km/h (2 Bft)
10.06.2015 10:55 14,8 C 90 % 1021,6 hPa 0,0 mm NO 52 11,3 km/h (2 Bft)
10.06.2015 11:00 15,0 C 89 % 1021,6 hPa 0,0 mm O-NO 65 9,7 km/h (2 Bft)
10.06.2015 11:05 14,8 C 89 % 1021,6 hPa 0,0 mm O-NO 57 11,3 km/h (2 Bft)
10.06.2015 11:10 14,7 C 90 % 1021,6 hPa 0,0 mm O-SO 113 12,9 km/h (3 Bft)
10.06.2015 11:15 14,7 C 89 % 1021,7 hPa 0,0 mm NO 42 9,7 km/h (2 Bft)
10.06.2015 11:20 14,8 C 89 % 1021,7 hPa 0,0 mm O-SO 111 9,7 km/h (2 Bft)
10.06.2015 11:25 15,0 C 89 % 1021,7 hPa 0,0 mm O 85 8,0 km/h (2 Bft)
10.06.2015 11:30 15,1 C 89 % 1021,7 hPa 0,0 mm NO 47 11,3 km/h (2 Bft)
10.06.2015 11:35 14,9 C 89 % 1021,7 hPa 0,0 mm N-NO 20 9,7 km/h (2 Bft)
10.06.2015 11:40 15,1 C 89 % 1021,7 hPa 0,0 mm N 360 9,7 km/h (2 Bft)
10.06.2015 11:45 15,1 C 89 % 1021,7 hPa 0,0 mm O 82 9,7 km/h (2 Bft)
10.06.2015 11:50 15,2 C 88 % 1021,7 hPa 0,0 mm O-NO 71 9,7 km/h (2 Bft)
10.06.2015 11:55 15,2 C 89 % 1021,6 hPa 0,0 mm O 81 8,0 km/h (2 Bft)
10.06.2015 12:00 15,2 C 89 % 1021,6 hPa 0,0 mm O-NO 73 9,7 km/h (2 Bft)
10.06.2015 12:05 15,3 C 88 % 1021,6 hPa 0,0 mm O-NO 76 11,3 km/h (2 Bft)
10.06.2015 12:10 15,3 C 88 % 1021,7 hPa 0,0 mm O-NO 57 11,3 km/h (2 Bft)
10.06.2015 12:15 15,5 C 88 % 1021,7 hPa 0,0 mm O-SO 109 8,0 km/h (2 Bft)
10.06.2015 12:20 15,7 C 88 % 1021,7 hPa 0,0 mm O-SO 114 11,3 km/h (2 Bft)
10.06.2015 12:25 15,8 C 88 % 1021,6 hPa 0,0 mm O 90 9,7 km/h (2 Bft)
10.06.2015 12:30 15,8 C 87 % 1021,7 hPa 0,0 mm O-NO 59 8,0 km/h (2 Bft)
10.06.2015 12:35 15,6 C 87 % 1021,6 hPa 0,0 mm O-NO 68 12,9 km/h (3 Bft)
10.06.2015 12:40 15,7 C 87 % 1021,6 hPa 0,0 mm NO 51 12,9 km/h (3 Bft)
10.06.2015 12:45 15,6 C 87 % 1021,5 hPa 0,0 mm NO 43 11,3 km/h (2 Bft)
10.06.2015 12:50 15,7 C 87 % 1021,6 hPa 0,0 mm O-NO 64 11,3 km/h (2 Bft)
10.06.2015 12:55 15,7 C 87 % 1021,6 hPa 0,0 mm N-NO 22 9,7 km/h (2 Bft)
10.06.2015 13:00 15,8 C 87 % 1021,6 hPa 0,0 mm O-NO 72 11,3 km/h (2 Bft)
10.06.2015 13:05 15,7 C 86 % 1021,6 hPa 0,0 mm O-NO 76 12,9 km/h (3 Bft)
10.06.2015 13:10 15,6 C 87 % 1021,6 hPa 0,0 mm NO 45 11,3 km/h (2 Bft)
10.06.2015 13:15 15,7 C 87 % 1021,6 hPa 0,0 mm O 82 12,9 km/h (3 Bft)
10.06.2015 13:20 15,8 C 87 % 1021,6 hPa 0,0 mm O 82 9,7 km/h (2 Bft)
10.06.2015 13:25 16,0 C 87 % 1021,5 hPa 0,0 mm O-NO 69 9,7 km/h (2 Bft)
10.06.2015 13:30 16,2 C 87 % 1021,5 hPa 0,0 mm O 95 11,3 km/h (2 Bft)
10.06.2015 13:35 16,4 C 86 % 1021,4 hPa 0,0 mm SO 128 9,7 km/h (2 Bft)
10.06.2015 13:40 16,4 C 86 % 1021,4 hPa 0,0 mm O-SO 121 11,3 km/h (2 Bft)
10.06.2015 13:45 16,4 C 87 % 1021,3 hPa 0,0 mm O-SO 123 12,9 km/h (3 Bft)
10.06.2015 13:50 16,5 C 86 % 1021,2 hPa 0,0 mm O-SO 115 9,7 km/h (2 Bft)
10.06.2015 13:55 16,7 C 87 % 1021,2 hPa 0,0 mm O-SO 117 11,3 km/h (2 Bft)
10.06.2015 14:00 16,6 C 86 % 1021,1 hPa 0,0 mm O-SO 102 14,5 km/h (3 Bft)
10.06.2015 14:05 16,7 C 86 % 1021,1 hPa 0,0 mm O 94 11,3 km/h (2 Bft)
10.06.2015 14:10 16,9 C 85 % 1021,1 hPa 0,0 mm SO 134 14,5 km/h (3 Bft)
10.06.2015 14:15 16,9 C 85 % 1021,1 hPa 0,0 mm O-NO 62 12,9 km/h (3 Bft)
10.06.2015 14:20 17,0 C 85 % 1021,1 hPa 0,0 mm O-NO 72 12,9 km/h (3 Bft)
10.06.2015 14:25 17,1 C 84 % 1021,0 hPa 0,0 mm O-SO 117 11,3 km/h (2 Bft)
10.06.2015 14:30 17,0 C 86 % 1021,1 hPa 0,0 mm SO 132 8,0 km/h (2 Bft)
10.06.2015 14:35 16,9 C 86 % 1021,1 hPa 0,0 mm O-SO 117 12,9 km/h (3 Bft)
10.06.2015 14:40 16,9 C 85 % 1021,0 hPa 0,0 mm O 101 11,3 km/h (2 Bft)
10.06.2015 14:45 16,8 C 85 % 1021,1 hPa 0,0 mm O-SO 122 11,3 km/h (2 Bft)
10.06.2015 14:50 17,0 C 86 % 1021,0 hPa 0,0 mm S-SO 159 9,7 km/h (2 Bft)
10.06.2015 14:55 17,1 C 86 % 1021,0 hPa 0,0 mm S-SO 155 11,3 km/h (2 Bft)
10.06.2015 15:00 17,0 C 85 % 1021,0 hPa 0,0 mm O-SO 109 11,3 km/h (2 Bft)
10.06.2015 15:05 16,9 C 85 % 1021,0 hPa 0,0 mm O-SO 110 12,9 km/h (3 Bft)
10.06.2015 15:10 17,1 C 85 % 1021,0 hPa 0,0 mm SO 134 11,3 km/h (2 Bft)
10.06.2015 15:15 17,1 C 85 % 1020,9 hPa 0,0 mm O-SO 105 12,9 km/h (3 Bft)
10.06.2015 15:20 17,1 C 85 % 1020,9 hPa 0,0 mm SO 134 11,3 km/h (2 Bft)
10.06.2015 15:25 17,1 C 85 % 1020,9 hPa 0,0 mm O 83 9,7 km/h (2 Bft)
10.06.2015 15:30 17,1 C 84 % 1020,9 hPa 0,0 mm S-SO 154 9,7 km/h (2 Bft)
10.06.2015 15:35 17,1 C 85 % 1020,9 hPa 0,0 mm SO 130 9,7 km/h (2 Bft)
10.06.2015 15:40 17,1 C 85 % 1020,9 hPa 0,0 mm O-NO 71 8,0 km/h (2 Bft)
10.06.2015 15:45 17,3 C 85 % 1020,8 hPa 0,0 mm O 88 8,0 km/h (2 Bft)
10.06.2015 15:50 17,4 C 85 % 1020,8 hPa 0,0 mm O 88 8,0 km/h (2 Bft)
10.06.2015 15:55 17,5 C 86 % 1020,7 hPa 0,0 mm S-SO 149 6,4 km/h (2 Bft)
10.06.2015 16:00 17,3 C 85 % 1020,7 hPa 0,0 mm SO 131 12,9 km/h (3 Bft)
10.06.2015 16:05 17,2 C 84 % 1020,6 hPa 0,0 mm O-SO 112 11,3 km/h (2 Bft)
10.06.2015 16:10 17,3 C 84 % 1020,7 hPa 0,0 mm SO 136 12,9 km/h (3 Bft)
10.06.2015 16:15 17,3 C 84 % 1020,6 hPa 0,0 mm O-SO 110 11,3 km/h (2 Bft)
10.06.2015 16:20 17,2 C 84 % 1020,7 hPa 0,0 mm O 100 11,3 km/h (2 Bft)
10.06.2015 16:25 17,2 C 84 % 1020,7 hPa 0,0 mm O-NO 76 9,7 km/h (2 Bft)
10.06.2015 16:30 17,2 C 84 % 1020,7 hPa 0,0 mm O-SO 103 11,3 km/h (2 Bft)
10.06.2015 16:35 17,2 C 84 % 1020,6 hPa 0,0 mm O-SO 110 8,0 km/h (2 Bft)
10.06.2015 16:40 17,2 C 84 % 1020,6 hPa 0,0 mm O-SO 111 9,7 km/h (2 Bft)
10.06.2015 16:45 17,2 C 85 % 1020,5 hPa 0,0 mm O-SO 114 8,0 km/h (2 Bft)
10.06.2015 16:50 17,2 C 85 % 1020,5 hPa 0,0 mm O 98 8,0 km/h (2 Bft)
10.06.2015 16:55 17,3 C 85 % 1020,3 hPa 0,0 mm SO 130 9,7 km/h (2 Bft)
10.06.2015 17:00 17,3 C 85 % 1020,3 hPa 0,0 mm O-SO 111 11,3 km/h (2 Bft)
10.06.2015 17:05 17,3 C 85 % 1020,3 hPa 0,0 mm O 84 12,9 km/h (3 Bft)
10.06.2015 17:10 17,3 C 84 % 1020,3 hPa 0,0 mm O-SO 111 11,3 km/h (2 Bft)
10.06.2015 17:15 17,3 C 84 % 1020,3 hPa 0,0 mm SO 146 9,7 km/h (2 Bft)
10.06.2015 17:20 17,3 C 84 % 1020,3 hPa 0,0 mm O 99 8,0 km/h (2 Bft)
10.06.2015 17:25 17,3 C 84 % 1020,2 hPa 0,0 mm O-SO 123 9,7 km/h (2 Bft)
10.06.2015 17:30 17,3 C 84 % 1020,2 hPa 0,0 mm O-SO 123 11,3 km/h (2 Bft)
10.06.2015 17:35 17,2 C 84 % 1020,2 hPa 0,0 mm SO 145 6,4 km/h (2 Bft)
10.06.2015 17:40 17,2 C 85 % 1020,2 hPa 0,0 mm O-SO 119 6,4 km/h (2 Bft)
10.06.2015 17:45 17,2 C 85 % 1020,2 hPa 0,0 mm SO 126 8,0 km/h (2 Bft)
10.06.2015 17:50 17,2 C 85 % 1020,1 hPa 0,0 mm O-NO 69 8,0 km/h (2 Bft)
10.06.2015 17:55 17,2 C 85 % 1020,1 hPa 0,0 mm O-SO 117 6,4 km/h (2 Bft)
10.06.2015 18:00 17,1 C 85 % 1020,1 hPa 0,0 mm SO 133 6,4 km/h (2 Bft)
10.06.2015 18:05 17,2 C 85 % 1020,1 hPa 0,0 mm S-SO 152 4,8 km/h (1 Bft)
10.06.2015 18:10 17,2 C 84 % 1020,0 hPa 0,0 mm SO 127 4,8 km/h (1 Bft)
10.06.2015 18:15 17,2 C 85 % 1020,1 hPa 0,0 mm S-SO 151 4,8 km/h (1 Bft)
10.06.2015 18:20 17,2 C 85 % 1020,1 hPa 0,0 mm S-SO 151 3,2 km/h (1 Bft)
10.06.2015 18:25 17,2 C 86 % 1020,0 hPa 0,0 mm S-SO 151 3,2 km/h (1 Bft)
10.06.2015 18:30 17,2 C 84 % 1020,1 hPa 0,0 mm S-SO 151 3,2 km/h (1 Bft)
10.06.2015 18:35 17,3 C 85 % 1020,0 hPa 0,0 mm S-SO 151 0,0 km/h (0 Bft)
10.06.2015 18:40 17,3 C 85 % 1020,0 hPa 0,0 mm S-SO 151 1,6 km/h (1 Bft)
10.06.2015 18:45 17,3 C 84 % 1020,0 hPa 0,0 mm S-SO 151 1,6 km/h (1 Bft)
10.06.2015 18:50 17,3 C 85 % 1020,0 hPa 0,0 mm S-SO 151 1,6 km/h (1 Bft)
10.06.2015 18:55 17,3 C 85 % 1019,9 hPa 0,0 mm S-SO 151 1,6 km/h (1 Bft)
10.06.2015 19:00 17,2 C 85 % 1020,0 hPa 0,0 mm S-SO 151 1,6 km/h (1 Bft)
10.06.2015 19:05 17,2 C 85 % 1019,9 hPa 0,0 mm S-SO 151 0,0 km/h (0 Bft)
10.06.2015 19:10 17,2 C 84 % 1019,9 hPa 0,0 mm S-SO 151 0,0 km/h (0 Bft)
10.06.2015 19:15 17,3 C 85 % 1020,0 hPa 0,0 mm S-SO 151 0,0 km/h (0 Bft)
10.06.2015 19:20 17,2 C 85 % 1019,9 hPa 0,0 mm S-SO 151 0,0 km/h (0 Bft)
10.06.2015 19:25 17,2 C 85 % 1019,9 hPa 0,0 mm S-SO 151 0,0 km/h (0 Bft)
10.06.2015 19:30 17,3 C 85 % 1019,9 hPa 0,0 mm S-SO 151 0,0 km/h (0 Bft)
10.06.2015 19:35 17,2 C 86 % 1019,8 hPa 0,0 mm S-SO 151 0,0 km/h (0 Bft)
10.06.2015 19:40 17,3 C 86 % 1019,9 hPa 0,0 mm S-SO 151 0,0 km/h (0 Bft)
10.06.2015 19:45 17,3 C 85 % 1020,0 hPa 0,0 mm S-SO 151 0,0 km/h (0 Bft)
10.06.2015 19:50 17,2 C 86 % 1020,0 hPa 0,0 mm S-SO 151 0,0 km/h (0 Bft)
10.06.2015 19:55 17,2 C 86 % 1020,1 hPa 0,0 mm S-SO 151 0,0 km/h (0 Bft)
10.06.2015 20:00 17,2 C 87 % 1020,1 hPa 0,0 mm S-SO 151 0,0 km/h (0 Bft)
10.06.2015 20:05 17,1 C 88 % 1020,0 hPa 0,0 mm S-SO 151 0,0 km/h (0 Bft)
10.06.2015 20:10 16,9 C 88 % 1020,0 hPa 0,0 mm S-SO 151 0,0 km/h (0 Bft)
10.06.2015 20:15 16,8 C 89 % 1020,1 hPa 0,0 mm S-SO 151 0,0 km/h (0 Bft)
10.06.2015 20:20 16,6 C 89 % 1020,0 hPa 0,0 mm S-SO 151 0,0 km/h (0 Bft)
10.06.2015 20:25 16,6 C 89 % 1020,1 hPa 0,0 mm S-SO 151 0,0 km/h (0 Bft)
10.06.2015 20:30 16,6 C 89 % 1020,1 hPa 0,0 mm S-SO 151 0,0 km/h (0 Bft)
10.06.2015 20:35 16,5 C 89 % 1020,1 hPa 0,0 mm S-SO 151 0,0 km/h (0 Bft)
10.06.2015 20:40 16,4 C 89 % 1020,0 hPa 0,0 mm S-SO 151 0,0 km/h (0 Bft)
10.06.2015 20:45 16,5 C 89 % 1020,0 hPa 0,0 mm S-SO 151 0,0 km/h (0 Bft)
10.06.2015 20:50 16,5 C 89 % 1020,1 hPa 0,0 mm S-SO 151 0,0 km/h (0 Bft)
10.06.2015 20:55 16,4 C 89 % 1020,1 hPa 0,0 mm S-SO 151 1,6 km/h (1 Bft)
10.06.2015 21:00 16,4 C 89 % 1020,2 hPa 0,0 mm S-SO 151 0,0 km/h (0 Bft)
10.06.2015 21:05 16,4 C 89 % 1020,2 hPa 0,0 mm S-SO 151 0,0 km/h (0 Bft)
10.06.2015 21:10 16,5 C 89 % 1020,3 hPa 0,0 mm S-SO 151 0,0 km/h (0 Bft)
10.06.2015 21:15 16,4 C 89 % 1020,4 hPa 0,0 mm S-SO 151 0,0 km/h (0 Bft)
10.06.2015 21:20 16,4 C 90 % 1020,4 hPa 0,0 mm S-SO 151 0,0 km/h (0 Bft)
10.06.2015 21:25 16,3 C 90 % 1020,4 hPa 0,0 mm S-SO 151 0,0 km/h (0 Bft)
10.06.2015 21:30 16,3 C 90 % 1020,5 hPa 0,0 mm S-SO 151 0,0 km/h (0 Bft)
10.06.2015 21:35 16,4 C 90 % 1020,6 hPa 0,0 mm S-SO 151 0,0 km/h (0 Bft)
10.06.2015 21:40 16,3 C 90 % 1020,7 hPa 0,0 mm S-SO 151 0,0 km/h (0 Bft)
10.06.2015 21:45 16,2 C 91 % 1020,6 hPa 0,0 mm S-SO 151 0,0 km/h (0 Bft)
10.06.2015 21:50 16,2 C 91 % 1020,7 hPa 0,0 mm S-SO 151 0,0 km/h (0 Bft)
10.06.2015 21:55 16,2 C 91 % 1020,8 hPa 0,0 mm S-SO 151 0,0 km/h (0 Bft)
10.06.2015 22:00 16,3 C 90 % 1020,9 hPa 0,0 mm S-SO 151 1,6 km/h (1 Bft)
10.06.2015 22:05 16,3 C 90 % 1020,9 hPa 0,0 mm S-SO 151 0,0 km/h (0 Bft)
10.06.2015 22:10 16,4 C 90 % 1020,9 hPa 0,0 mm S 178 1,6 km/h (1 Bft)
10.06.2015 22:15 16,4 C 89 % 1020,9 hPa 0,0 mm S 178 0,0 km/h (0 Bft)
10.06.2015 22:20 16,4 C 89 % 1020,9 hPa 0,0 mm S 178 1,6 km/h (1 Bft)
10.06.2015 22:25 16,4 C 89 % 1020,8 hPa 0,0 mm S 187 1,6 km/h (1 Bft)
10.06.2015 22:30 16,4 C 89 % 1020,9 hPa 0,0 mm S 187 1,6 km/h (1 Bft)
10.06.2015 22:35 16,4 C 89 % 1020,9 hPa 0,0 mm S 187 0,0 km/h (0 Bft)
10.06.2015 22:40 16,3 C 90 % 1020,8 hPa 0,0 mm S 187 1,6 km/h (1 Bft)
10.06.2015 22:45 16,3 C 90 % 1020,8 hPa 0,0 mm S 187 0,0 km/h (0 Bft)
10.06.2015 22:50 16,4 C 89 % 1020,8 hPa 0,0 mm SW 215 3,2 km/h (1 Bft)
10.06.2015 22:55 16,5 C 89 % 1020,7 hPa 0,0 mm SW 219 1,6 km/h (1 Bft)
10.06.2015 23:00 16,4 C 89 % 1020,9 hPa 0,0 mm SW 219 0,0 km/h (0 Bft)
10.06.2015 23:05 16,3 C 90 % 1020,9 hPa 0,0 mm SW 219 1,6 km/h (1 Bft)
10.06.2015 23:10 16,3 C 90 % 1020,9 hPa 0,0 mm SW 225 3,2 km/h (1 Bft)
10.06.2015 23:15 16,3 C 90 % 1020,9 hPa 0,0 mm SW 225 3,2 km/h (1 Bft)
10.06.2015 23:20 16,4 C 90 % 1021,0 hPa 0,0 mm SW 225 1,6 km/h (1 Bft)
10.06.2015 23:25 16,4 C 90 % 1021,0 hPa 0,0 mm SW 225 1,6 km/h (1 Bft)
10.06.2015 23:30 16,4 C 90 % 1021,0 hPa 0,0 mm SW 225 0,0 km/h (0 Bft)
10.06.2015 23:35 16,3 C 90 % 1021,0 hPa 0,0 mm SW 225 1,6 km/h (1 Bft)
10.06.2015 23:40 16,3 C 90 % 1021,0 hPa 0,0 mm SW 232 3,2 km/h (1 Bft)
10.06.2015 23:45 16,3 C 90 % 1021,0 hPa 0,0 mm SW 232 3,2 km/h (1 Bft)
10.06.2015 23:50 16,4 C 89 % 1021,0 hPa 0,0 mm SW 232 1,6 km/h (1 Bft)
10.06.2015 23:55 16,4 C 89 % 1021,0 hPa 0,0 mm SW 232 0,0 km/h (0 Bft)
_ Min-Zeit 05:25 14:25 19:35 - - - 18:35
Minimum _ 12,8 C 84 % 1019,8 hPa - - - 0,0 km/h (0 Bft)
_ Max-Zeit 15:55 00:00 08:45 00:00 - - 14:00
Maximum _ 17,5 C 93 % 1021,9 hPa 0,0 mm - - 14,5 km/h
O-SO (3 Bft)
Durchschnitt _ 15,1 C 89 % 1021,1 hPa #0,0 mm S-SO - 6,5 km/h (2 Bft)